Location: *
(47.7167°N, 1.7333°W)
Time: 03:45:11
(UTC+00:00)

ERS-1 Rocket - Pass Details

Date: 09 April 2020
Orbit: 753 x 757 km, 98.5° (Epoch: 25 May)

Event Time Altitude Azimuth Distance (km) Brightness Sun altitude
Exits shadow 22:26:59 34° 265° (W) 1,220 4.1 -29.9°
Drops below altitude 10° 22:31:32 10° 329° (NNW) 2,291 6.4 -30.3°
Sets 22:34:03 0° 339° (NNW) 3,221 7.4 -30.5°
